RH
19 19 18 16 17 20 27 30 38 40 35 28 22 18 15 13 13 13 13 13 13 13 15 14 13 11 9 9 10 12 20 24 21 13 11 12 15 18 18 15 13 11 11 7 9 8 8
7 7 7 8 7 7 8 9 8 9 12 15 17 24 29 32 34 36 38 39 39 38 38 38 38 36 33 27 18 14 7 7 8 15 18 14 12 16 20 19 17 15 12 9 7 8 7
9 10 10 9 9 9 9 9 10 9 9 9 9 10 10 10 10 12 12 14 18 27 32 28 24 21 24 35 33 34 33 23 17 12 12 12 14 14 16 20 21 18 15 12 9 7 8
16 17 16 16 17 15 13 13 13 11 12 11 11 10 10 10 10 10 10 11 11 11 13 15 14 11 11 12 16 17 20 31 34 32 28 20 15 14 15 16 19 20 20 19 14 10 7
18 20 21 22 23 24 24 23 19 16 13 12 12 11 11 12 11 10 11 11 11 11 11 11 10 10 11 11 11 11 11 12 15 23 35 36 34 31 28 24 18 18 18 18 20 20 16
19 18 18 19 20 23 25 27 29 30 30 26 20 15 14 14 14 14 14 14 14 13 12 12 11 11 11 12 12 12 11 11 11 12 17 25 28 29 42 39 29 19 16 17 20 21 23
16 18 18 17 17 18 18 19 21 24 27 31 26 23 18 15 14 15 16 17 17 18 18 16 14 13 13 13 13 14 13 12 12 13 14 12 14 33 35 30 32 37 38 36 20 21 20
15 17 16 14 13 14 12 11 12 12 19 24 31 27 25 23 22 21 20 21 18 18 19 17 14 14 15 15 14 16 16 14 15 16 16 14 16 24 29 35 36 36 30 34 34 30 21
16 17 15 12 11 11 10 8 8 9 12 24 27 32 35 35 33 33 30 26 28 25 20 21 17 15 16 16 16 17 19 19 18 18 17 15 19 19 18 19 19 22 28 39 25 37 35
16 13 11 9 7 7 7 8 7 12 27 34 34 33 34 40 33 34 38 42 42 38 30 26 23 21 20 19 18 18 18 18 18 17 15 13 16 17 17 20 24 13 29 24 21 19 10
8 7 6 5 5 4 4 5 6 26 40 44 40 36 34 37 38 35 38 43 45 42 30 28 25 25 22 21 21 20 20 18 16 14 14 14 14 14 13 14 15 14 18 20 17 13 11
6 5 5 5 5 4 4 4 5 30 39 40 44 43 42 38 42 44 41 38 42 44 35 32 29 25 22 20 19 19 19 18 17 15 15 16 15 15 13 13 13 13 13 14 14 12 10
10 8 8 7 6 6 8 15 24 39 37 36 41 44 45 48 49 49 50 46 43 42 41 34 31 25 23 23 24 24 24 22 19 17 16 17 18 17 16 16 18 18 17 16 16 14 12
22 17 8 7 13 18 25 35 40 38 34 35 41 47 48 51 57 58 57 52 46 41 40 39 37 34 32 29 29 28 26 24 22 21 22 23 24 22 21 20 19 18 20 22 21 17 14
20 8 6 20 30 37 37 36 32 30 29 36 44 52 57 58 59 56 54 51 50 48 47 47 43 40 37 33 30 29 28 28 29 29 28 28 29 28 26 26 26 26 28 38 37 31 24
6 6 17 38 47 42 37 34 33 34 32 35 44 49 48 50 57 57 56 55 56 55 53 51 49 47 44 42 39 36 34 33 33 33 33 32 31 30 29 30 31 31 31 32 39 40 32
38 38 40 44 41 37 35 36 38 40 44 45 45 44 40 39 39 40 42 38 37 47 45 45 46 46 45 44 44 41 37 35 35 34 33 32 36 32 33 31 31 34 40 47 46 42 33
48 48 48 45 46 43 39 40 43 44 46 43 45 42 40 38 35 34 33 32 34 37 44 44 45 47 48 49 48 47 43 39 38 37 36 31 33 36 30 25 24 23 19 23 33 16 20
53 48 47 47 46 43 44 43 43 44 43 39 35 32 32 31 32 33 33 32 36 40 49 47 50 51 51 50 48 48 47 43 42 37 33 29 28 28 28 26 23 22 24 32 54 100 30
51 46 43 40 40 41 41 38 35 34 33 31 30 27 26 26 26 26 26 29 36 40 46 51 49 52 54 53 52 49 46 40 37 32 27 24 23 21 22 18 20 18 21 32 79 72 72
49 45 41 39 39 36 33 31 30 29 27 25 23 21 20 21 21 25 24 24 32 39 43 47 48 49 47 44 41 38 35 35 32 26 26 29 24 25 21 21 24 19 18 14 19 27 79
40 36 32 29 29 27 25 24 24 22 19 19 19 20 22 20 24 29 31 30 30 35 34 43 43 42 41 41 37 36 30 26 24 32 48 47 34 38 24 28 20 15 11 12 14 14 14
30 27 26 24 23 23 21 18 16 16 16 18 23 30 40 33 38 37 32 30 26 28 35 38 40 39 34 28 25 22 20 20 24 37 59 49 52 45 20 28 28 20 25 30 35 40 75
28 25 23 21 17 15 12 11 12 13 20 27 38 41 38 32 29 22 17 19 24 28 29 30 27 26 28 26 23 22 21 23 38 69 86 65 67 58 40 52 61 64 59 52 54 66 83
20 17 16 14 14 14 13 15 21 25 27 24 18 13 9 11 8 8 9 13 14 20 23 22 25 27 28 26 25 22 33 46 60 70 100 76 84 82 89 97 100 92 84 76 74 90 100
16 15 15 14 14 19 24 28 23 18 10 7 5 5 5 5 5 7 8 11 15 20 26 33 34 30 32 48 76 69 67 73 90 91 79 94 100 100 100 100 96 93 100 100 100 100 100
12 14 18 24 29 30 22 13 9 5 4 4 4 4 6 6 5 7 9 13 22 33 39 44 46 54 75 100 100 100 91 80 66 65 80 100 100 98 98 100 93 79 100 100 100 97 100
20 24 24 21 15 10 6 5 4 4 4 5 4 6 9 10 9 11 14 25 46 71 82 89 79 60 100 100 100 95 92 96 74 80 79 88 97 91 81 82 90 89 91 100 99 100 95
18 16 12 8 5 4 4 5 5 6 6 20 8 18 97 99 56 54 64 90 99 100 97 84 71 68 76 99 100 98 100 97 93 89 90 95 93 79 86 98 98 96 92 90 93 100 100
Wind_Speed
19 20 21 22 21 21 21 20 18 17 16 16 16 18 19 20 21 21 22 23 22 22 22 22 22 22 21 24 25 26 27 26 27 28 29 28 29 28 27 27 26 27 29 29 27 26 23
15 15 16 16 18 19 20 22 21 21 21 21 21 22 23 24 24 24 24 24 24 24 23 24 25 25 25 26 24 23 23 24 26 27 28 30 31 31 29 29 28 25 28 32 30 30 30
17 17 18 19 20 20 21 22 22 22 24 25 25 25 26 27 27 28 28 29 30 30 27 25 25 26 25 26 26 25 26 26 26 25 25 27 28 30 31 32 31 29 27 28 29 32 36
22 23 23 23 22 22 23 24 25 26 27 27 26 28 29 30 30 31 32 30 29 29 29 28 28 30 28 26 28 27 27 28 29 30 28 28 28 28 29 31 32 33 32 29 26 34 39
20 21 23 25 25 26 27 28 29 30 31 32 32 32 32 32 32 34 36 37 36 34 34 34 33 33 31 29 28 28 28 28 28 28 29 30 32 30 28 28 33 33 37 36 34 33 36
19 21 23 25 27 28 30 31 33 34 35 35 36 36 35 36 35 35 36 38 38 38 35 36 36 36 34 33 32 31 28 28 28 29 29 30 33 29 27 31 35 34 36 37 36 38 42
20 21 22 24 26 28 30 33 34 36 39 39 39 40 40 40 40 41 42 43 43 40 39 39 39 35 38 36 35 35 36 34 32 31 32 35 33 24 30 33 32 33 36 38 33 38 46
23 23 24 27 29 31 32 34 36 39 40 40 41 41 43 44 44 44 44 44 44 45 38 41 41 38 38 37 35 35 36 34 30 31 36 36 28 28 32 33 34 36 38 33 34 34 46
24 26 26 28 31 33 34 37 39 41 44 42 42 43 42 44 47 47 48 49 48 47 48 38 41 42 40 38 36 31 32 33 34 34 37 38 31 32 34 34 37 37 38 36 41 37 43
28 28 29 31 33 35 38 40 43 46 46 38 37 40 42 42 45 47 48 48 47 48 51 47 44 37 33 32 33 33 33 34 36 36 38 38 35 38 40 37 38 43 37 43 42 44 47
32 34 34 35 37 39 42 45 46 48 44 39 38 39 41 41 42 43 44 45 44 45 49 47 43 40 36 36 35 34 35 37 37 39 40 38 39 39 40 40 43 43 42 42 44 46 50
38 40 41 41 42 43 46 47 49 48 44 42 42 42 42 45 45 43 44 45 45 47 47 48 45 42 39 38 39 39 40 40 40 41 42 41 43 45 44 44 44 47 47 47 49 51 55
39 42 45 45 45 46 48 49 49 47 48 46 45 45 43 43 44 45 42 42 44 43 40 45 41 37 38 40 41 44 46 46 46 46 46 46 46 45 47 50 50 51 53 55 56 57 56
43 44 44 46 47 49 50 48 48 49 48 47 46 45 46 46 42 42 41 43 43 41 40 40 38 41 42 44 46 47 48 49 49 50 51 51 49 49 52 53 55 57 57 58 61 60 59
46 46 46 49 50 51 51 51 50 50 52 47 46 45 42 42 41 42 44 45 41 41 45 45 44 45 47 48 49 50 50 52 54 54 55 57 56 57 58 58 57 55 54 53 58 60 65
46 48 50 51 49 49 49 49 50 50 52 51 47 43 44 42 41 43 45 45 45 45 47 48 49 48 48 50 54 55 55 57 58 60 61 62 62 61 61 61 59 58 59 58 59 64 67
50 51 51 50 50 50 50 50 49 50 50 50 50 48 48 47 46 47 47 49 49 49 50 51 52 52 52 53 55 58 60 61 62 63 65 67 68 66 66 63 60 58 57 57 59 64 67
51 47 47 50 51 52 54 54 54 54 53 55 55 55 55 54 53 53 51 51 51 52 54 53 54 56 57 59 61 62 63 65 65 66 67 66 69 68 65 63 63 62 61 55 56 62 65
49 50 51 52 53 55 57 57 58 58 59 59 59 58 56 57 59 56 55 54 54 53 56 56 58 59 59 60 62 61 62 63 64 65 65 64 64 64 64 62 61 58 56 54 49 41 58
51 54 56 57 58 58 59 60 62 62 64 65 64 61 59 59 61 61 60 58 57 57 57 60 59 60 60 60 60 61 58 61 62 63 64 64 63 63 63 62 58 59 54 50 50 56 55
56 58 61 62 63 62 63 63 63 65 66 71 69 68 66 65 66 64 63 61 57 58 59 59 59 58 59 57 57 57 57 57 58 58 57 58 60 57 56 54 51 55 58 57 54 55 60
62 64 66 68 69 70 70 71 71 71 73 75 74 72 71 71 66 62 62 59 60 60 59 57 57 56 57 56 56 56 57 57 55 51 49 50 53 51 55 47 48 54 52 49 52 53 54
68 72 74 74 75 76 75 75 77 78 80 79 77 75 73 71 67 66 62 61 59 59 56 56 57 57 58 56 56 56 56 53 51 48 43 45 42 44 51 41 45 50 45 45 45 46 44
77 76 78 78 78 78 79 82 84 84 84 82 78 75 74 70 66 62 60 59 57 56 57 55 56 56 52 54 53 51 51 50 48 41 37 37 36 38 42 37 39 39 37 36 38 39 38
77 79 80 81 84 86 87 89 89 88 81 77 72 71 68 69 64 60 57 59 57 55 55 55 50 50 49 48 49 48 44 42 39 37 35 33 33 36 34 29 29 36 35 36 35 35 35
85 86 89 92 94 95 94 90 85 82 80 78 74 69 67 66 63 57 56 57 53 51 50 48 47 45 42 41 39 40 36 29 30 31 29 29 31 32 30 36 34 26 29 23 26 29 25
93 94 97 98 97 96 91 88 86 83 80 77 71 62 63 64 60 55 54 52 50 47 46 43 40 38 35 31 33 31 25 24 23 25 26 27 27 29 29 32 33 30 31 22 23 26 27
101 103 102 101 98 96 94 92 89 84 73 58 57 50 54 57 55 50 46 44 42 40 39 29 35 32 27 30 33 34 30 25 23 23 27 30 32 32 32 31 31 33 33 34 33 33 30
102 102 104 102 99 95 90 79 72 58 47 43 43 40 33 37 40 34 32 31 32 33 31 32 31 23 18 24 29 28 27 24 26 28 29 32 33 33 31 32 34 34 36 36 35 35 34
Wind_Direction
15 12 13 9 10 9 2 354 342 332 324 319 315 310 307 304 303 305 307 308 310 311 314 314 313 313 310 303 301 300 296 296 296 295 292 288 284 283 285 289 286 277 269 264 263 272 275
18 15 14 11 6 1 356 353 353 349 343 336 331 323 317 314 313 312 311 308 308 308 309 312 315 316 317 313 311 312 307 301 297 295 293 291 287 285 281 280 282 282 274 269 265 268 270
2 358 355 352 348 344 341 338 337 334 331 329 326 324 321 319 319 317 315 313 311 308 308 309 312 314 313 305 304 306 307 304 301 298 296 294 293 288 282 278 280 280 279 276 270 266 266
354 352 347 346 344 339 335 333 331 325 324 320 314 310 313 314 314 314 313 312 312 312 310 308 309 309 306 303 301 302 298 298 299 299 299 298 298 297 290 282 281 278 278 278 273 266 266
351 354 352 349 347 345 344 342 337 330 324 319 314 310 308 309 309 308 309 308 307 307 307 305 306 304 303 302 298 296 295 292 291 291 293 292 291 296 303 302 287 281 276 275 273 274 275
340 343 343 345 344 344 343 342 339 335 332 328 322 319 316 313 310 307 306 304 303 302 300 297 296 294 295 294 295 292 292 293 291 290 288 285 285 293 299 288 291 291 292 285 279 273 271
327 330 334 335 334 335 337 337 336 334 330 324 320 317 314 311 308 305 305 302 303 301 302 298 293 290 290 290 290 291 290 289 288 285 282 285 290 294 276 283 286 289 294 295 299 281 272
316 319 324 325 326 327 328 329 330 327 325 321 317 311 310 306 305 303 302 301 300 298 297 298 294 292 287 287 287 286 284 282 281 280 282 283 285 278 279 281 282 284 288 292 288 287 283
305 310 313 316 317 318 319 322 322 321 322 319 314 310 308 304 302 301 297 296 297 296 293 288 289 290 291 287 286 283 278 281 279 278 279 282 288 276 276 277 279 281 280 284 282 281 283
299 300 303 306 309 310 313 316 319 320 321 313 307 302 303 302 301 301 299 297 296 296 291 292 289 285 283 281 282 281 278 279 281 279 279 282 281 282 280 278 277 278 281 278 279 278 281
296 298 300 303 306 310 314 315 316 318 318 311 304 305 305 302 299 300 299 296 295 292 292 293 292 289 290 288 284 279 279 278 279 279 280 283 281 276 278 281 278 281 276 275 276 278 279
298 298 300 302 304 308 310 311 314 314 312 309 305 304 302 302 299 297 296 294 292 288 293 290 292 296 293 289 287 285 284 283 281 278 278 279 278 280 280 276 276 278 276 273 272 273 277
296 296 298 301 304 306 308 311 312 310 311 311 307 304 301 299 297 296 294 290 286 287 292 287 291 290 289 286 284 283 284 282 279 277 276 275 277 278 277 277 277 274 273 271 271 271 278
300 302 302 303 304 307 309 311 310 308 310 310 308 306 304 301 294 290 289 286 285 291 287 284 283 283 280 278 278 280 281 280 280 279 279 279 278 276 275 275 275 274 274 271 272 271 269
299 300 301 304 306 306 307 307 307 307 307 307 305 301 296 295 291 288 286 285 286 285 283 282 279 277 277 276 277 277 277 279 279 279 279 279 280 280 280 278 276 272 272 272 271 270 269
296 297 300 303 303 302 303 305 307 307 307 307 304 299 296 292 287 285 284 285 284 280 278 279 280 280 281 282 281 281 279 279 280 280 279 279 278 277 276 278 278 278 276 273 269 269 269
297 296 298 299 299 299 301 302 303 303 303 303 300 296 293 291 289 286 285 284 282 281 281 281 280 279 278 276 275 276 276 277 277 278 280 280 279 280 281 281 279 274 269 268 269 269 270
294 293 292 293 296 300 302 302 301 301 301 300 299 296 295 294 290 289 285 284 283 280 278 277 277 276 278 278 277 278 280 280 281 281 282 281 281 281 280 278 277 276 276 273 269 269 268
292 293 295 298 299 299 298 299 299 299 298 297 296 295 292 292 290 289 287 285 283 280 278 278 277 277 277 277 278 277 278 280 280 280 280 279 278 278 277 276 274 275 275 275 275 270 271
297 297 297 297 296 296 297 298 299 298 297 298 294 291 289 287 287 287 285 284 284 284 283 282 281 280 279 279 278 279 279 279 279 279 278 276 275 275 275 275 276 275 274 269 263 262 258
295 295 294 295 295 296 296 296 295 293 293 294 293 291 288 288 286 286 285 285 287 286 284 283 283 281 279 279 279 279 277 276 277 276 276 276 275 275 274 275 278 276 273 273 273 271 266
294 295 296 298 298 297 297 295 293 291 289 289 289 288 288 287 287 288 289 292 290 288 287 283 280 277 277 276 275 274 274 274 274 273 275 276 277 277 275 278 277 275 274 277 276 276 274
296 296 297 296 294 293 291 290 289 288 288 289 289 289 289 288 291 292 293 290 289 286 282 280 277 276 276 278 277 278 278 277 278 276 276 277 280 279 277 281 279 276 278 278 279 275 282
294 293 294 293 292 290 290 289 288 288 289 291 294 294 293 295 293 293 288 285 282 280 279 276 276 277 279 277 277 277 276 276 275 277 278 283 279 279 285 285 283 286 287 286 283 283 281
292 292 290 289 288 287 286 286 289 291 293 294 293 291 289 291 291 287 283 280 279 278 277 276 277 278 279 279 277 275 274 275 278 275 278 276 271 276 283 287 276 289 289 289 284 287 287
290 290 288 287 285 286 288 290 292 293 292 291 291 287 283 283 284 280 277 276 277 277 275 278 280 280 278 276 275 275 280 277 269 272 269 264 268 275 274 281 281 293 294 281 285 287 287
288 287 286 288 290 291 292 292 291 291 289 288 288 281 277 276 278 274 273 275 275 276 278 280 279 276 275 270 263 274 276 277 274 274 272 270 274 279 287 291 285 285 281 287 277 282 291
290 291 292 292 292 291 291 290 290 291 293 287 290 278 271 271 272 272 272 272 274 276 280 288 281 276 269 262 266 272 276 265 275 270 276 279 282 286 285 285 283 277 278 279 281 285 284
291 291 290 289 287 288 290 292 295 296 288 270 274 272 275 277 278 273 273 272 272 271 274 266 274 270 254 279 277 276 267 261 277 279 277 278 280 282 282 279 280 281 277 278 279 279 279